| time (UTC) | temp F | wind direction | speed MPH | gust MPH | rain 1hr in | rain 24hr in | rain mn in | humidity % | barometer mb |
| 20260508011454 | 62 | 348 | 1.0 | 4.0 | 0.00 | 0.00 | 0.00 | 81 | 1014.4 |
| 20260508010518 | 62 | 343 | 2.0 | 6.0 | 0.00 | 0.00 | 0.00 | 80 | 1014.4 |
| 20260508005450 | 63 | 5 | 1.0 | 6.0 | 0.00 | 0.00 | 0.00 | 79 | 1014.2 |
| 20260508004453 | 63 | 26 | 1.0 | 4.0 | 0.00 | 0.00 | 0.00 | 78 | 1014.4 |
| 20260508001230 | 64 | 5 | 2.0 | 5.0 | 0.00 | 0.00 | 0.00 | 74 | 1015.3 |
| 20260508000216 | 65 | 14 | 2.0 | 5.0 | 0.00 | 0.00 | 0.00 | 74 | 1015.0 |
| 20260507235215 | 65 | 355 | 2.0 | 5.0 | 0.00 | 0.00 | 0.00 | 73 | 1015.4 |
| 20260507231903 | 65 | 321 | 3.0 | 7.0 | 0.00 | 0.00 | 0.00 | 73 | 1015.5 |
| 20260507230903 | 65 | 350 | 2.0 | 7.0 | 0.00 | 0.00 | 0.00 | 72 | 1014.9 |
| 20260507225922 | 65 | 342 | 3.0 | 6.0 | 0.00 | 0.00 | 0.00 | 73 | 1015.5 |
| 20260507224914 | 65 | 5 | 3.0 | 6.0 | 0.00 | 0.00 | 0.00 | 73 | 1015.6 |
| 20260507223900 | 65 | 315 | 4.0 | 6.0 | 0.00 | 0.00 | 0.00 | 75 | 1015.8 |
| 20260507222900 | 64 | 311 | 4.0 | 7.0 | 0.00 | 0.00 | 0.00 | 74 | 1015.8 |
| 20260507221905 | 64 | 304 | 3.0 | 7.0 | 0.00 | 0.00 | 0.00 | 74 | 1016.1 |
| 20260507220835 | 64 | 304 | 4.0 | 7.0 | 0.00 | 0.00 | 0.00 | 73 | 1016.1 |
| 20260507215850 | 64 | 338 | 3.0 | 6.0 | 0.00 | 0.00 | 0.00 | 75 | 1015.9 |
| 20260507214840 | 64 | 351 | 3.0 | 7.0 | 0.00 | 0.00 | 0.00 | 73 | 1016.6 |
| 20260507213850 | 64 | 355 | 4.0 | 10.0 | 0.00 | 0.00 | 0.00 | 74 | 1016.7 |
| 20260507212842 | 64 | 291 | 6.0 | 10.0 | 0.00 | 0.00 | 0.00 | 75 | 1017.0 |
| 20260507210702 | 64 | 304 | 5.0 | 9.0 | 0.00 | 0.00 | 0.00 | 74 | 1017.2 |
| 20260507205631 | 63 | 323 | 5.0 | 10.0 | 0.00 | 0.00 | 0.00 | 75 | 1017.1 |
| 20260507204637 | 63 | 355 | 5.0 | 10.0 | 0.00 | 0.00 | 0.00 | 74 | 1017.2 |
| 20260507203637 | 62 | 72 | 5.0 | 10.0 | 0.00 | 0.00 | 0.00 | 77 | 1016.7 |
| 20260507202607 | 62 | 333 | 6.0 | 10.0 | 0.00 | 0.00 | 0.00 | 77 | 1017.2 |
| 20260507201539 | 62 | 339 | 4.0 | 8.0 | 0.00 | 0.00 | 0.00 | 77 | 1017.7 |
| 20260507200525 | 62 | 323 | 6.0 | 11.0 | 0.00 | 0.00 | 0.00 | 78 | 1017.0 |
| 20260507195514 | 62 | 314 | 7.0 | 11.0 | 0.00 | 0.00 | 0.00 | 77 | 1017.1 |
| 20260507194454 | 62 | 284 | 5.0 | 9.0 | 0.00 | 0.00 | 0.00 | 77 | 1017.7 |
| 20260507193445 | 62 | 302 | 4.0 | 9.0 | 0.00 | 0.00 | 0.00 | 78 | 1018.0 |
| 20260507192453 | 63 | 311 | 3.0 | 10.0 | 0.00 | 0.00 | 0.00 | 78 | 1018.4 |
| 20260507184046 | 61 | 350 | 7.0 | 12.0 | 0.00 | 0.00 | 0.00 | 79 | 1017.6 |
| 20260507181939 | 61 | 0 | 6.0 | 9.0 | 0.00 | 0.00 | 0.00 | 78 | 1018.0 |
| 20260507175827 | 61 | 0 | 6.0 | 12.0 | 0.00 | 0.00 | 0.00 | 79 | 1017.7 |
| 20260507174803 | 61 | 313 | 6.0 | 12.0 | 0.00 | 0.00 | 0.00 | 79 | 1018.3 |
| 20260507172640 | 60 | 330 | 7.0 | 13.0 | 0.00 | 0.00 | 0.00 | 80 | 1017.4 |
| 20260507171646 | 60 | 12 | 6.0 | 11.0 | 0.00 | 0.00 | 0.00 | 81 | 1017.7 |
| 20260507170632 | 60 | 334 | 5.0 | 12.0 | 0.00 | 0.00 | 0.00 | 81 | 1018.7 |
| 20260507165653 | 59 | 338 | 8.0 | 14.0 | 0.00 | 0.00 | 0.00 | 82 | 1018.8 |
| 20260507164704 | 59 | 335 | 7.0 | 14.0 | 0.00 | 0.00 | 0.00 | 82 | 1017.6 |
| 20260507163646 | 59 | 333 | 6.0 | 10.0 | 0.00 | 0.00 | 0.00 | 82 | 1018.2 |
| 20260507162615 | 59 | 339 | 3.0 | 9.0 | 0.00 | 0.00 | 0.00 | 83 | 1019.6 |
| 20260507161618 | 59 | 337 | 4.0 | 9.0 | 0.00 | 0.00 | 0.00 | 84 | 1020.1 |
| 20260507154354 | 59 | 334 | 4.0 | 11.0 | 0.00 | 0.00 | 0.00 | 86 | 1019.8 |
| 20260507153410 | 58 | 317 | 7.0 | 11.0 | 0.00 | 0.00 | 0.00 | 85 | 1019.4 |
| 20260507152349 | 59 | 336 | 5.0 | 9.0 | 0.00 | 0.02 | 0.00 | 87 | 1019.1 |
| 20260507151334 | 58 | 310 | 5.0 | 9.0 | 0.00 | 0.04 | 0.00 | 87 | 1019.7 |
| 20260507150259 | 58 | 11 | 5.0 | 12.0 | 0.00 | 0.04 | 0.00 | 88 | 1019.1 |
| 20260507145248 | 57 | 296 | 7.0 | 13.0 | 0.00 | 0.04 | 0.00 | 88 | 1019.3 |
| 20260507144224 | 57 | 333 | 8.0 | 14.0 | 0.00 | 0.04 | 0.00 | 89 | 1018.8 |
| 20260507142119 | 57 | 326 | 7.0 | 12.0 | 0.00 | 0.04 | 0.00 | 91 | 1019.3 |
| 20260507135947 | 56 | 325 | 6.0 | 12.0 | 0.00 | 0.04 | 0.00 | 91 | 1018.7 |
| 20260507134951 | 56 | 316 | 7.0 | 15.0 | 0.00 | 0.04 | 0.00 | 92 | 1018.9 |
| 20260507133919 | 56 | 294 | 8.0 | 15.0 | 0.00 | 0.04 | 0.00 | 93 | 1018.2 |
| 20260507132903 | 55 | 337 | 8.0 | 17.0 | 0.00 | 0.04 | 0.00 | 93 | 1018.1 |
| 20260507131900 | 55 | 337 | 10.0 | 17.0 | 0.00 | 0.04 | 0.00 | 94 | 1018.1 |
| 20260507125659 | 55 | 303 | 9.0 | 18.0 | 0.00 | 0.04 | 0.00 | 94 | 1018.7 |
| 20260507124655 | 55 | 319 | 8.0 | 18.0 | 0.00 | 0.04 | 0.00 | 94 | 1018.4 |
| 20260507123710 | 55 | 344 | 8.0 | 18.0 | 0.00 | 0.05 | 0.00 | 95 | 1018.4 |
| 20260507121521 | 55 | 294 | 8.0 | 15.0 | 0.00 | 0.05 | 0.00 | 94 | 1018.2 |
| 20260507120530 | 55 | 301 | 8.0 | 15.0 | 0.00 | 0.05 | 0.00 | 94 | 1018.2 |
| 20260507115506 | 55 | 312 | 9.0 | 15.0 | 0.00 | 0.05 | 0.00 | 94 | 1017.7 |
| 20260507114502 | 55 | 304 | 9.0 | 18.0 | 0.00 | 0.05 | 0.00 | 94 | 1017.6 |
| 20260507113512 | 55 | 340 | 9.0 | 18.0 | 0.00 | 0.05 | 0.00 | 94 | 1017.8 |
| 20260507112517 | 55 | 337 | 8.0 | 14.0 | 0.00 | 0.05 | 0.00 | 93 | 1018.1 |
| 20260507111510 | 55 | 338 | 7.0 | 14.0 | 0.00 | 0.05 | 0.00 | 93 | 1017.8 |
| 20260507110447 | 56 | 346 | 7.0 | 13.0 | 0.00 | 0.05 | 0.00 | 92 | 1017.6 |
| 20260507104316 | 56 | 325 | 6.0 | 11.0 | 0.00 | 0.05 | 0.00 | 91 | 1017.6 |
| 20260507103326 | 56 | 329 | 6.0 | 13.0 | 0.00 | 0.05 | 0.00 | 91 | 1017.5 |
| 20260507102338 | 56 | 336 | 7.0 | 13.0 | 0.00 | 0.06 | 0.00 | 91 | 1017.2 |
| 20260507101312 | 57 | 308 | 8.0 | 14.0 | 0.00 | 0.06 | 0.00 | 92 | 1017.2 |
| 20260507100336 | 57 | 315 | 8.0 | 14.0 | 0.00 | 0.06 | 0.00 | 92 | 1017.0 |
| 20260507095347 | 57 | 325 | 6.0 | 12.0 | 0.00 | 0.06 | 0.00 | 92 | 1017.0 |
| 20260507094409 | 57 | 309 | 5.0 | 11.0 | 0.00 | 0.06 | 0.00 | 92 | 1017.3 |
| 20260507093338 | 57 | 302 | 6.0 | 9.0 | 0.00 | 0.06 | 0.00 | 92 | 1016.8 |
| 20260507092344 | 57 | 313 | 4.0 | 10.0 | 0.00 | 0.06 | 0.00 | 92 | 1016.7 |
| 20260507091340 | 57 | 331 | 6.0 | 10.0 | 0.00 | 0.06 | 0.00 | 92 | 1016.6 |
| 20260507090322 | 57 | 292 | 5.0 | 10.0 | 0.00 | 0.06 | 0.00 | 92 | 1016.3 |
| 20260507085323 | 57 | 327 | 6.0 | 10.0 | 0.00 | 0.06 | 0.00 | 92 | 1016.4 |
| 20260507084348 | 57 | 321 | 3.0 | 6.0 | 0.00 | 0.06 | 0.00 | 92 | 1016.2 |
| 20260507083405 | 57 | 295 | 3.0 | 8.0 | 0.00 | 0.06 | 0.00 | 92 | 1015.9 |
| 20260507082411 | 57 | 343 | 5.0 | 10.0 | 0.00 | 0.06 | 0.00 | 92 | 1015.8 |
| 20260507081423 | 57 | 332 | 6.0 | 10.0 | 0.00 | 0.06 | 0.00 | 92 | 1015.9 |
| 20260507080421 | 57 | 319 | 5.0 | 9.0 | 0.00 | 0.06 | 0.00 | 92 | 1015.7 |
| 20260507075405 | 57 | 333 | 4.0 | 8.0 | 0.00 | 0.06 | 0.00 | 92 | 1015.2 |
| 20260507074346 | 57 | 347 | 5.0 | 7.0 | 0.00 | 0.06 | 0.00 | 92 | 1015.7 |
| 20260507073356 | 57 | 338 | 4.0 | 7.0 | 0.00 | 0.06 | 0.00 | 92 | 1015.2 |
| 20260507072330 | 57 | 10 | 0.0 | 4.0 | 0.00 | 0.06 | 0.00 | 92 | 1015.4 |
| 20260507071352 | 57 | 336 | 1.0 | 5.0 | 0.00 | 0.06 | 0.00 | 91 | 1015.4 |
| 20260507070407 | 57 | 342 | 4.0 | 7.0 | 0.00 | 0.06 | 0.00 | 91 | 1014.9 |
| 20260507065332 | 57 | 355 | 3.0 | 7.0 | 0.00 | 0.06 | 0.00 | 91 | 1015.1 |
| 20260507064314 | 58 | 345 | 4.0 | 10.0 | 0.00 | 0.06 | 0.00 | 90 | 1014.9 |
| 20260507063258 | 58 | 336 | 6.0 | 10.0 | 0.00 | 0.06 | 0.00 | 90 | 1014.9 |
| 20260507062227 | 58 | 338 | 6.0 | 9.0 | 0.00 | 0.06 | 0.00 | 90 | 1015.0 |
| 20260507060058 | 58 | 325 | 6.0 | 11.0 | 0.00 | 0.06 | 0.00 | 89 | 1015.1 |
| 20260507055103 | 58 | 322 | 6.0 | 11.0 | 0.00 | 0.06 | 0.00 | 89 | 1015.0 |
| 20260507054039 | 59 | 336 | 6.0 | 11.0 | 0.00 | 0.06 | 0.00 | 90 | 1015.2 |
| 20260507053008 | 59 | 313 | 5.0 | 8.0 | 0.00 | 0.06 | 0.00 | 89 | 1015.6 |
| 20260507052012 | 59 | 331 | 5.0 | 9.0 | 0.00 | 0.06 | 0.00 | 89 | 1015.3 |
| 20260507051011 | 59 | 333 | 5.0 | 9.0 | 0.00 | 0.06 | 0.00 | 89 | 1015.3 |
| 20260507050031 | 59 | 318 | 5.0 | 9.0 | 0.00 | 0.06 | 0.00 | 88 | 1015.1 |
| 20260507045000 | 59 | 315 | 6.0 | 10.0 | 0.00 | 0.06 | 0.06 | 88 | 1015.2 |
| 20260507044002 | 59 | 340 | 6.0 | 10.0 | 0.00 | 0.06 | 0.06 | 88 | 1014.9 |
| 20260507041820 | 60 | 333 | 4.0 | 7.0 | 0.00 | 0.06 | 0.06 | 89 | 1015.3 |
| 20260507040802 | 60 | 329 | 4.0 | 9.0 | 0.00 | 0.06 | 0.06 | 89 | 1015.2 |
| 20260507034713 | 60 | 320 | 4.0 | 7.0 | 0.00 | 0.06 | 0.06 | 90 | 1014.9 |
| 20260507033722 | 60 | 323 | 4.0 | 8.0 | 0.00 | 0.06 | 0.06 | 90 | 1015.0 |
| 20260507032652 | 60 | 336 | 5.0 | 10.0 | 0.00 | 0.06 | 0.06 | 90 | 1014.7 |
| 20260507031712 | 60 | 316 | 5.0 | 10.0 | 0.00 | 0.06 | 0.06 | 90 | 1014.3 |
| 20260507030704 | 60 | 331 | 4.0 | 8.0 | 0.00 | 0.06 | 0.06 | 90 | 1014.2 |
| 20260507025644 | 60 | 323 | 5.0 | 8.0 | 0.00 | 0.06 | 0.06 | 90 | 1014.4 |
| 20260507024630 | 60 | 295 | 3.0 | 7.0 | 0.00 | 0.06 | 0.06 | 90 | 1014.9 |
| 20260507023616 | 60 | 307 | 4.0 | 6.0 | 0.00 | 0.06 | 0.06 | 91 | 1014.4 |
| 20260507022635 | 60 | 323 | 3.0 | 6.0 | 0.00 | 0.06 | 0.06 | 91 | 1014.4 |
| 20260507021623 | 60 | 323 | 2.0 | 5.0 | 0.00 | 0.06 | 0.06 | 91 | 1014.1 |
| 20260507015437 | 59 | 330 | 2.0 | 5.0 | 0.00 | 0.06 | 0.06 | 90 | 1013.8 |
| 20260507014430 | 60 | 295 | 1.0 | 5.0 | 0.00 | 0.06 | 0.06 | 90 | 1013.6 |
| 20260507013421 | 60 | 302 | 1.0 | 5.0 | 0.00 | 0.06 | 0.06 | 90 | 1013.6 |